Weather in Kosh-Khabl

Russia / Karachay-Cherkess Republic     44°08′33″N   41°51′11″E
temp.,
°C
wind,
m/s
gust,
m/s
humid.,
%
clouds,
%
prec.,
mm/h
press.,
hPa
HPBL,
m
11 may, tue
tue1100:00+2ssw328972 0.0 101929
03:00+2s4668100 0.0 1019117
06:00+3s3563100 0.1 1017155
09:00+7w1156100 0.2 1016448
12:00+8n2365100 0.3 1015762
15:00+9nne5672100 0.8 1015575
18:00+8n4683100 0.0 1015387
21:00+6w1295100 0.0 101651
12 may, wed
wed1200:00+5s009679 0.0 101630
03:00+3wsw119527 0.0 101717
06:00+4sw118128 0.0 1018111
09:00+10ene33691 0.0 1016511
12:00+15ene55620 0.0 10141039
15:00+16ene56590 0.0 10141121
18:00+14e597217 0.0 1013579
21:00+10e119167 0.0 101414
13 may, thu
thu1300:00+9s33900 0.0 101324
03:00+8s33640 0.0 101323
06:00+9s33650 0.0 101443
09:00+18se11490 0.0 1013324
12:00+21ne33507 0.0 1013708
15:00+22ene555582 0.0 1012915
18:00+19ene59750 0.0 1012397
21:00+14se11900 0.0 101312
14 may, fri
fri1400:00+13sse328960 0.0 101223
03:00+12s4460100 0.0 101343
06:00+13s45613 0.0 101350
09:00+23sse23480 0.0 1012226
12:00+27e22400 0.0 1011669
15:00+27ene45464 0.0 10101051
18:00+23ene477611 0.0 1011223
21:00+17sse22875 0.0 101217
15 may, sat
sat1500:00+15s447413 0.0 101244
03:00+15ssw4458100 0.0 101349
06:00+15sw33674 0.0 101436
09:00+22wnw23683 0.0 1014461
12:00+24n33620 0.0 1014943
15:00+24nne556511 0.0 10131234
18:00+20nnw4784100 1.8 1014165
21:00+16sse3394100 7.9 101456